Regional Weather Roundup
Issued by NWS

Home | Current Version | Previous Version | Graphics & Text | Print | Product List | Glossary Off
Versions: 1 2 3 4 5 6 7 8 9 10 11 12 13 14 15 16 17 18 19 20 21 22 23 24 25 26 27 28 29 30 31 32 33 34 35 36 37 38 39 40 41 42 43 44 45 46 47 48 49 50

000
ASUS43 KTOP 202008
RWRKS

WEATHER ROUNDUP FOR KANSAS
NATIONAL WEATHER SERVICE GOODLAND KS
200 PM CST SAT DEC 20 2014

NOTE:  "FAIR" INDICATES FEW OR NO CLOUDS BELOW 12,000 FEET WITH NO
SIGNIFICANT WEATHER AND/OR OBSTRUCTIONS TO VISIBILITY.

KSZ001>006-013>018-027>032-041>047-202100-
NORTHWEST KANSAS

CITY           SKY/WX    TMP DP  RH WIND       PRES   REMARKS
GOODLAND       MOSUNNY   54  27  35 W5        29.96F
HAYS           SUNNY     48  34  57 S15       30.01F
HILL CITY      MOSUNNY   54  31  41 S8        29.98F
RUSSELL        SUNNY     50  39  66 S13       30.00F
$$

KSZ061>065-074>080-084>089-202100-
SOUTHWEST KANSAS

CITY           SKY/WX    TMP DP  RH WIND       PRES   REMARKS
DODGE CITY     MOSUNNY   42  35  76 S15       30.02F
ELKHART          N/A    N/A N/A N/A MISG        N/A
GARDEN CITY    MOSUNNY   48  34  58 S10       29.99F
GREAT BEND     SUNNY     48  39  71 S13       30.03F
LIBERAL        PTSUNNY   43  37  81 S9        30.02F
PRATT          SUNNY     50  37  62 S9        30.06F
$$

KSZ066>073-081>083-090>101-202100-
SOUTHEAST KANSAS

CITY           SKY/WX    TMP DP  RH WIND       PRES   REMARKS
CHANUTE        MOSUNNY   47  37  68 S13       30.15F
COFFEYVILLE    CLOUDY    45  35  68 S9        30.18F
HUTCHINSON     MOSUNNY   51  39  63 S14       30.06F
MEDICINE LODGE   N/A     46  38  73 S14       30.08F
NEWTON         PTSUNNY   48  37  66 S17       30.09F
PARSONS        MOSUNNY   45  36  70 S8        30.18F
WICHITA INTL   PTSUNNY   47  36  65 S14G23    30.10F
WICHITA JABRA  MOSUNNY   48  36  63 SW12      30.09F
WICHITA MCCONL PTSUNNY   47  38  68 S12       30.10F
WINFIELD       MOSUNNY   50  38  63 S14       30.13F
$$

KSZ007>012-019>026-033>040-048>060-102>105-202100-
NORTHEAST KANSAS

CITY           SKY/WX    TMP DP  RH WIND       PRES   REMARKS
CONCORDIA      SUNNY     39  33  79 S7        30.03F
EMPORIA        SUNNY     49  39  68 SW13      30.09F
LAWRENCE       MOSUNNY   47  37  68 S12       30.11F
MANHATTAN      MOSUNNY   47  39  74 S10       30.06F
MARYSVILLE     CLOUDY    36  34  93 S5        30.06F FOG
OLATHE IND     PTSUNNY   45  38  76 S14       30.11F
OLATHE EXE     CLOUDY    44  37  76 S13       30.11F
SALINA         SUNNY     50  41  71 S16       30.05F
TOPEKA BILLARD MOSUNNY   49  39  68 SW9       30.10F
TOPEKA FORBES  PTSUNNY   49  39  68 S13       30.09F
$$


USA.gov is the U.S. government's official web portal to all federal, state and local government web resources and services.